Location: Ferchesar
(52.6477°N, 12.4298°E)
Time: 21:45:31
(UTC+02:00)

Transit 4A - Pass Details

Date: 28 February 2021
Orbit: 868 x 976 km, 66.8° (Epoch: 10 April)

Event Time Altitude Azimuth Distance (km) Brightness Sun altitude
Rises 15:18:43 0° 290° (WNW) 3,648 11.4 19.0°
Reaches altitude 10° 15:21:57 10° 306° (NW) 2,687 10.5 18.6°
Maximum altitude 15:26:42 22° 355° (N) 1,937 9.4 18.1°
Drops below altitude 10° 15:31:22 10° 45° (NE) 2,632 9.7 17.6°
Sets 15:34:30 0° 61° (ENE) 3,554 10.3 17.2°
